Shreveport, LA

6:43 PM CDT on August 24, 2016 (GMT -0500)
Shreveport Regional

Weather History for KSHV - February, 2013

Change the Weather History Date:

Sunday, February 17, 2013

  Actual Average Record
Temperature  
Mean Temperature 52 °F 51 °F  
Max Temperature 70 °F 62 °F 84 °F (1986)
Min Temperature 33 °F 40 °F 13 °F (1900)
Degree Days  
Heating Degree Days 13 14  
Month to date heating degree days 227 269  
Since 1 July heating degree days 1465 1741  
Cooling Degree Days 0 0  
Month to date cooling degree days 0 0  
Year to date cooling degree days 8 4  
Growing Degree Days 2 (Base 50)    
Moisture  
Dew Point 34 °F    
Average Humidity 51    
Maximum Humidity 75    
Minimum Humidity 27    
Precipitation  
Precipitation 0.00 in 0.18 in 1.29 in (1960)
Month to date precipitation 2.24 2.91  
Year to date precipitation 7.00 7.11  
Snow  
Snow 0.00 in - - ()
Month to date snowfall 0.0  
Since 1 July snowfall 0.1  
Snow Depth 0.00 in    
Sea Level Pressure  
Sea Level Pressure 30.13 in    
Wind  
Wind Speed 10 mph (South)    
Max Wind Speed 23 mph    
Max Gust Speed 28 mph    
Visibility 10 miles    
Events      
T = Trace of Precipitation, MM = Missing Value Source: NWS Daily Summary

Daily Weather History Graph

Daily Weather History Graph

Search for Another Location

Airport or City:

Trip Planner

Search our weather history database for the weather conditions in past years. The results will help you decide how hot, cold, wet, or windy it might be!

Date:

Astronomy

Feb. 17, 2013 Rise Set
Actual Time 6:55 AM CST 6:03 PM CST
Civil Twilight 6:30 AM CST 6:28 PM CST
Nautical Twilight 6:02 AM CST 6:56 PM CST
Astronomical Twilight 5:33 AM CST 7:25 PM CST
Moon 11:15 AM CST (2/17) 12:33 AM CST (2/17)
Length of Visible Light 11h 57m
Length of Day
11h 07m
Waxing Crescent, 49% of the Moon is Illuminated
Feb 17
Waxing Crescent
Feb 17
First Quarter
Feb 25
Full
Mar 4
Last Quarter
Mar 11
New

Hourly Weather History & Observations

Time (CST) Temp. Windchill Dew Point Humidity Pressure Visibility Wind Dir Wind Speed Gust Speed Precip Events Conditions
12:56 AM 34.0 °F - 27.0 °F 75% 30.23 in 10.0 mi Calm Calm - N/A   Clear
1:56 AM 36.0 °F - 25.0 °F 64% 30.22 in 10.0 mi Calm Calm - N/A   Clear
2:56 AM 36.0 °F - 24.1 °F 62% 30.22 in 10.0 mi Calm Calm - N/A   Clear
3:56 AM 35.1 °F 31.0 °F 25.0 °F 67% 30.21 in 10.0 mi SE 4.6 mph - N/A   Clear
4:56 AM 34.0 °F 28.8 °F 25.0 °F 70% 30.21 in 10.0 mi South 5.8 mph - N/A   Clear
5:56 AM 34.0 °F 28.0 °F 26.1 °F 73% 30.21 in 10.0 mi SSE 6.9 mph - N/A   Clear
6:56 AM 35.1 °F 28.6 °F 27.0 °F 72% 30.21 in 10.0 mi SSE 8.1 mph - N/A   Clear
7:56 AM 39.0 °F 33.4 °F 30.0 °F 70% 30.22 in 10.0 mi SSE 8.1 mph - N/A   Clear
8:56 AM 45.0 °F 40.1 °F 32.0 °F 60% 30.22 in 10.0 mi South 9.2 mph - N/A   Clear
9:56 AM 53.1 °F - 34.0 °F 48% 30.21 in 10.0 mi SSW 13.8 mph 20.7 mph N/A   Clear
10:56 AM 60.1 °F - 36.0 °F 41% 30.20 in 10.0 mi SW 13.8 mph 20.7 mph N/A   Clear
11:56 AM 63.0 °F - 37.0 °F 38% 30.17 in 10.0 mi SSW 13.8 mph 19.6 mph N/A   Clear
12:56 PM 66.9 °F - 37.0 °F 33% 30.13 in 10.0 mi SSW 12.7 mph 18.4 mph N/A   Clear
1:56 PM 68.0 °F - 36.0 °F 31% 30.09 in 10.0 mi SSW 11.5 mph 18.4 mph N/A   Clear
2:56 PM 69.1 °F - 35.1 °F 29% 30.06 in 10.0 mi South 15.0 mph 23.0 mph N/A   Clear
3:56 PM 69.1 °F - 36.0 °F 30% 30.05 in 10.0 mi South 15.0 mph - N/A   Partly Cloudy
4:56 PM 68.0 °F - 34.0 °F 28% 30.04 in 10.0 mi SSW 13.8 mph 27.6 mph N/A   Partly Cloudy
5:56 PM 63.0 °F - 36.0 °F 37% 30.04 in 10.0 mi South 10.4 mph - N/A   Scattered Clouds
6:56 PM 55.9 °F - 37.0 °F 49% 30.04 in 10.0 mi South 8.1 mph - N/A   Scattered Clouds
7:56 PM 59.0 °F - 37.9 °F 46% 30.04 in 10.0 mi South 10.4 mph - N/A   Scattered Clouds
8:56 PM 57.0 °F - 39.9 °F 53% 30.06 in 10.0 mi South 13.8 mph - N/A   Partly Cloudy
9:56 PM 55.9 °F - 42.1 °F 60% 30.07 in 10.0 mi South 15.0 mph - N/A   Partly Cloudy
10:56 PM 55.9 °F - 43.0 °F 62% 30.07 in 10.0 mi South 16.1 mph 23.0 mph N/A   Partly Cloudy
11:56 PM 55.0 °F - 43.0 °F 64% 30.06 in 10.0 mi South 12.7 mph - N/A   Partly Cloudy